OK,33,60,780,33,2014-10-01T01:40:00,0,28072550,193430
OK,33,60,780,33,2014-10-01T01:45:00,0,28072999,193430
OK,33,60,780,33,2014-10-01T01:55:00,0,28073446,193430
OK,25,80,780,25,2014-10-01T02:00:00,1,28074212,193430
OK,25,80,780,25,2014-10-01T02:05:00,0,28074656,193430
OK,26,77,780,26,2014-10-01T02:15:00,1,28075101,193430
OK,26,77,780,26,2014-10-01T02:20:00,1,28075550,193430
OK,26,77,780,26,2014-10-01T02:25:00,0,28075995,193430
OK,24,83,780,24,2014-10-01T02:30:00,2,28076382,193430
OK,27,74,780,27,2014-10-01T02:35:00,1,28076831,193430
OK,30,66,780,30,2014-10-01T02:40:00,1,28077280,193430
OK,25,80,780,25,2014-10-01T02:50:00,4,28078132,193430
OK,29,69,780,29,2014-10-01T02:55:00,4,28078581,193430
OK,28,71,780,28,2014-10-01T03:00:00,5,28079026,193430
OK,34,59,780,34,2014-10-01T03:05:00,2,28079474,193430
OK,33,60,780,33,2014-10-01T03:10:00,5,28079917,193430
OK,36,55,780,36,2014-10-01T03:20:00,3,28080700,193430
OK,36,55,780,36,2014-10-01T03:25:00,3,28081149,193430
OK,34,59,780,34,2014-10-01T03:30:00,4,28081597,193430
OK,29,69,780,29,2014-10-01T03:35:00,5,28082045,193430
OK,33,60,780,33,2014-10-01T03:40:00,9,28082494,193430
OK,29,69,780,29,2014-10-01T03:45:00,6,28082927,193430
OK,29,69,780,29,2014-10-01T03:50:00,3,28083359,193430
OK,35,57,780,35,2014-10-01T03:55:00,6,28083808,193430
OK,36,55,780,36,2014-10-01T04:00:00,8,28084257,193430
OK,36,55,780,36,2014-10-01T04:05:00,7,28084698,193430
OK,29,69,780,29,2014-10-01T04:10:00,10,28085123,193430
OK,35,57,780,35,2014-10-01T04:15:00,13,28085572,193430
OK,30,66,780,30,2014-10-01T04:20:00,11,28086017,193430
OK,32,62,780,32,2014-10-01T04:25:00,12,28086466,193430
OK,35,57,780,35,2014-10-01T04:30:00,18,28086908,193430
OK,40,50,780,40,2014-10-01T04:35:00,18,28087357,193430
OK,36,55,780,36,2014-10-01T04:40:00,24,28087802,193430
OK,38,52,780,38,2014-10-01T04:45:00,26,28088251,193430
OK,44,45,780,44,2014-10-01T04:50:00,20,28088675,193430
OK,38,52,780,38,2014-10-01T05:00:00,11,28089554,193430
OK,43,46,780,43,2014-10-01T05:05:00,13,28090003,193430
OK,42,47,780,42,2014-10-01T05:10:00,12,28090452,193430
OK,47,42,780,47,2014-10-01T05:15:00,22,28090796,193430
OK,47,42,780,47,2014-10-01T05:20:00,24,28091245,193430
OK,61,32,780,61,2014-10-01T05:30:00,30,28092111,193430
OK,84,23,780,84,2014-10-01T05:35:00,27,28092559,193430
OK,73,27,780,73,2014-10-01T05:40:00,29,28093004,193430
OK,99,20,780,99,2014-10-01T05:50:00,23,28093876,193430
OK,95,21,780,95,2014-10-01T05:55:00,26,28094324,193430
OK,71,28,780,71,2014-10-01T06:05:00,38,28095181,193430
OK,73,27,780,73,2014-10-01T06:10:00,36,28095628,193430
OK,92,21,780,92,2014-10-01T06:20:00,31,28096490,193430
OK,88,22,780,88,2014-10-01T06:25:00,29,28096939,193430
OK,72,27,780,72,2014-10-01T06:30:00,30,28097373,193430
OK,73,27,780,73,2014-10-01T06:35:00,27,28097822,193430
OK,77,26,780,77,2014-10-01T06:40:00,20,28098271,193430
OK,69,29,780,69,2014-10-01T06:45:00,21,28098708,193430
OK,39,51,780,39,2014-10-01T06:50:00,22,28099152,193430
OK,37,54,780,37,2014-10-01T07:00:00,24,28099943,193430
OK,35,57,780,35,2014-10-01T07:10:00,32,28100699,193430
OK,45,44,780,45,2014-10-01T07:20:00,20,28101519,193430
OK,37,54,780,37,2014-10-01T07:25:00,27,28101968,193430
OK,33,60,780,33,2014-10-01T07:30:00,21,28102404,193430
OK,35,57,780,35,2014-10-01T07:35:00,16,28102853,193430
OK,36,55,780,36,2014-10-01T07:40:00,21,28103280,193430
OK,38,52,780,38,2014-10-01T07:45:00,18,28103727,193430
OK,55,36,780,55,2014-10-01T07:50:00,20,28104172,193430
OK,47,42,780,47,2014-10-01T07:55:00,18,28104617,193430
OK,33,60,780,33,2014-10-01T08:05:00,26,28105503,193430
OK,34,59,780,34,2014-10-01T08:10:00,21,28105943,193430
OK,35,57,780,35,2014-10-01T08:15:00,13,28106392,193430
OK,39,51,780,39,2014-10-01T08:20:00,18,28107218,193430
OK,50,40,780,50,2014-10-01T08:30:00,15,28107667,193430
OK,48,41,780,48,2014-10-01T08:40:00,17,28108555,193430
OK,33,60,780,33,2014-10-01T08:50:00,15,28109432,193430
OK,40,50,780,40,2014-10-01T09:00:00,14,28110224,193430
OK,46,43,780,46,2014-10-01T09:10:00,14,28111096,193430
OK,40,50,780,40,2014-10-01T09:20:00,15,28111974,193430
OK,54,37,780,54,2014-10-01T09:30:00,2,28112764,193430
OK,36,55,780,36,2014-10-01T09:40:00,10,28113637,193430
OK,36,55,780,36,2014-10-01T09:45:00,15,28114518,193430
OK,37,54,780,37,2014-10-01T09:50:00,29,28114880,193430
OK,40,50,780,40,2014-10-01T10:00:00,17,28115321,193430
OK,38,52,780,38,2014-10-01T10:10:00,15,28116182,193430
OK,36,55,780,36,2014-10-01T10:20:00,23,28117039,193430
OK,36,55,780,36,2014-10-01T10:30:00,13,28117913,193430
OK,44,45,780,44,2014-10-01T10:40:00,12,28118807,193430
OK,57,35,780,57,2014-10-01T10:45:00,16,28119698,193430
OK,48,41,780,48,2014-10-01T10:55:00,23,28120146,193430
OK,45,44,780,45,2014-10-01T11:00:00,18,28120594,193430
OK,37,54,780,37,2014-10-01T11:10:00,17,28121426,193430
OK,39,51,780,39,2014-10-01T11:15:00,20,28122313,193430
OK,56,35,780,56,2014-10-01T11:20:00,16,28122759,193430
OK,36,55,780,36,2014-10-01T11:30:00,15,28123203,193430
OK,37,54,780,37,2014-10-01T11:40:00,18,28124084,193430
OK,39,51,780,39,2014-10-01T11:50:00,23,28124935,193430
OK,33,60,780,33,2014-10-01T11:55:00,16,28125813,193430
OK,36,55,780,36,2014-10-01T12:00:00,16,28126175,193430
OK,41,48,780,41,2014-10-01T12:05:00,17,28126614,193430
OK,35,57,780,35,2014-10-01T12:10:00,18,28127063,193430
OK,46,43,780,46,2014-10-01T12:20:00,11,28127512,193430
OK,39,51,780,39,2014-10-01T12:30:00,18,28128389,193430
OK,43,46,780,43,2014-10-01T12:35:00,19,28129273,193430
OK,48,41,780,48,2014-10-01T12:40:00,20,28129712,193430
OK,46,43,780,46,2014-10-01T12:45:00,18,28130156,193430
OK,44,45,780,44,2014-10-01T12:50:00,17,28130593,193430
OK,43,46,780,43,2014-10-01T12:55:00,16,28131033,193430
OK,43,46,780,43,2014-10-01T13:00:00,12,28131476,193430
OK,36,55,780,36,2014-10-01T13:05:00,10,28131919,193430
OK,34,59,780,34,2014-10-01T13:10:00,8,28132359,193430
OK,60,33,780,60,2014-10-01T13:15:00,15,28132805,193430
OK,46,43,780,46,2014-10-01T13:20:00,19,28133243,193430
OK,36,55,780,36,2014-10-01T13:25:00,21,28133691,193430
OK,40,50,780,40,2014-10-01T13:30:00,18,28134130,193430
OK,38,52,780,38,2014-10-01T13:35:00,13,28134579,193430
OK,36,55,780,36,2014-10-01T13:40:00,17,28135002,193430
OK,51,39,780,51,2014-10-01T13:45:00,17,28135447,193430
OK,39,51,780,39,2014-10-01T13:50:00,11,28135885,193430
OK,34,59,780,34,2014-10-01T13:55:00,11,28136333,193430
OK,37,54,780,37,2014-10-01T14:00:00,8,28136774,193430
OK,43,46,780,43,2014-10-01T14:05:00,7,28137222,193430
OK,40,50,780,40,2014-10-01T14:10:00,15,28137658,193430
OK,37,54,780,37,2014-10-01T14:15:00,17,28138105,193430
OK,44,45,780,44,2014-10-01T14:20:00,16,28138536,193430
OK,58,34,780,58,2014-10-01T14:25:00,12,28138982,193430
OK,47,42,780,47,2014-10-01T14:30:00,8,28139397,193430
OK,46,43,780,46,2014-10-01T14:35:00,11,28139842,193430
OK,55,36,780,55,2014-10-01T14:40:00,13,28140286,193430
OK,49,40,780,49,2014-10-01T14:45:00,17,28140733,193430
OK,44,45,780,44,2014-10-01T14:50:00,14,28141164,193430
OK,49,40,780,49,2014-10-01T14:55:00,18,28141608,193430
OK,41,48,780,41,2014-10-01T15:00:00,20,28142044,193430
OK,65,30,780,65,2014-10-01T15:10:00,26,28142485,193430
OK,56,35,780,56,2014-10-01T15:15:00,27,28143361,193430
OK,47,42,780,47,2014-10-01T15:20:00,25,28143809,193430
OK,36,55,780,36,2014-10-01T15:30:00,14,28144258,193430
OK,34,59,780,34,2014-10-01T15:35:00,14,28145095,193430
OK,40,50,780,40,2014-10-01T15:40:00,8,28145542,193430
OK,54,37,780,54,2014-10-01T15:45:00,6,28145991,193430
OK,33,60,780,33,2014-10-01T15:55:00,5,28146440,193430
OK,46,43,780,46,2014-10-01T16:00:00,6,28146887,193430
OK,46,43,780,46,2014-10-01T16:05:00,11,28147297,193430
OK,46,43,780,46,2014-10-01T16:10:00,12,28147741,193430
OK,32,62,780,32,2014-10-01T16:20:00,14,28148591,193430
OK,36,55,780,36,2014-10-01T16:30:00,14,28149479,193430
OK,32,62,780,32,2014-10-01T16:40:00,6,28150354,193430
OK,32,62,780,32,2014-10-01T16:50:00,6,28151221,193430
OK,42,47,780,42,2014-10-01T16:55:00,10,28151670,193430
OK,29,69,780,29,2014-10-01T17:00:00,8,28152119,193430
OK,46,43,780,46,2014-10-01T17:05:00,2,28152565,193430
OK,38,52,780,38,2014-10-01T17:10:00,7,28153013,193430
OK,45,44,780,45,2014-10-01T17:20:00,9,28153461,193430
OK,36,55,780,36,2014-10-01T17:30:00,9,28154320,193430
OK,34,59,780,34,2014-10-01T17:40:00,3,28155211,193430
OK,33,60,780,33,2014-10-01T17:50:00,7,28156077,193430
OK,46,43,780,46,2014-10-01T17:55:00,3,28156526,193430
OK,36,55,780,36,2014-10-01T18:00:00,3,28156973,193430
OK,31,64,780,31,2014-10-01T18:10:00,5,28157842,193430
OK,34,59,780,34,2014-10-01T18:15:00,4,28158733,193430
OK,33,60,780,33,2014-10-01T18:20:00,5,28159178,193430
OK,27,74,780,27,2014-10-01T18:25:00,3,28159517,193430
OK,31,64,780,31,2014-10-01T18:30:00,6,28159962,193430
OK,30,66,780,30,2014-10-01T18:40:00,4,28160411,193430
OK,34,59,780,34,2014-10-01T18:50:00,0,28161298,193430
OK,29,69,780,29,2014-10-01T19:00:00,5,28162164,193430
OK,31,64,780,31,2014-10-01T19:05:00,0,28162612,193430
OK,31,64,780,31,2014-10-01T19:10:00,0,28163445,193430
OK,32,62,780,32,2014-10-01T19:20:00,5,28163894,193430
OK,31,64,780,31,2014-10-01T19:30:00,3,28164774,193430
OK,39,51,780,39,2014-10-01T19:35:00,0,28165647,193430
OK,33,60,780,33,2014-10-01T19:40:00,2,28166090,193430
OK,33,60,780,33,2014-10-01T19:45:00,7,28166451,193430
OK,32,62,780,32,2014-10-01T19:50:00,8,28166899,193430
OK,34,59,780,34,2014-10-01T19:55:00,5,28167330,193430
OK,31,64,780,31,2014-10-01T20:00:00,2,28167762,193430
OK,28,71,780,28,2014-10-01T20:05:00,0,28168210,193430
OK,50,40,780,50,2014-10-01T20:10:00,1,28168655,193430
OK,35,57,780,35,2014-10-01T20:15:00,3,28169104,193430
OK,33,60,780,33,2014-10-01T20:20:00,2,28169552,193430
OK,25,80,780,25,2014-10-01T20:25:00,1,28169980,193430
OK,25,80,780,25,2014-10-01T20:30:00,1,28170423,193430
OK,53,37,780,53,2014-10-01T20:35:00,1,28170871,193430
OK,39,51,780,39,2014-10-01T20:40:00,2,28171308,193430
OK,39,51,780,39,2014-10-01T20:45:00,0,28171754,193430
OK,28,71,780,28,2014-10-01T20:50:00,1,28172202,193430
OK,25,80,780,25,2014-10-01T20:55:00,1,28172648,193430
OK,26,77,780,26,2014-10-01T21:00:00,2,28173094,193430
OK,28,71,780,28,2014-10-01T21:05:00,1,28173543,193430
OK,32,62,780,32,2014-10-01T21:10:00,1,28173984,193430
OK,26,77,780,26,2014-10-01T21:15:00,2,28174433,193430
OK,21,95,780,21,2014-10-01T21:20:00,1,28174859,193430
OK,21,95,780,21,2014-10-01T21:25:00,0,28175255,193430
OK,21,95,780,21,2014-10-01T21:30:00,0,28175704,193430
OK,23,87,780,23,2014-10-01T21:35:00,0,28176153,193430
OK,23,87,780,23,2014-10-01T21:45:00,0,28176602,193430
OK,23,87,780,23,2014-10-01T21:50:00,0,28177398,193430
OK,30,66,780,30,2014-10-01T21:55:00,0,28177844,193430
OK,30,66,780,30,2014-10-01T22:00:00,0,28178293,193430
OK,30,66,780,30,2014-10-01T22:10:00,0,28178741,193430
OK,30,66,780,30,2014-10-01T22:15:00,0,28179617,193430
OK,30,66,780,30,2014-10-01T22:20:00,0,28180064,193430
OK,30,66,780,30,2014-10-01T22:25:00,0,28180463,193430
OK,30,66,780,30,2014-10-01T22:30:00,0,28180911,193430
OK,26,77,780,26,2014-10-01T22:35:00,0,28181335,193430
OK,25,80,780,25,2014-10-01T22:40:00,1,28181783,193430
OK,25,80,780,25,2014-10-01T22:45:00,1,28182230,193430
OK,25,80,780,25,2014-10-01T22:50:00,0,28182679,193430
OK,25,80,780,25,2014-10-01T22:55:00,0,28183096,193430
OK,26,77,780,26,2014-10-01T23:00:00,1,28183529,193430
OK,26,77,780,26,2014-10-01T23:05:00,0,28183974,193430
OK,26,77,780,26,2014-10-01T23:10:00,0,28184423,193430
OK,28,71,780,28,2014-10-01T23:15:00,1,28184858,193430
OK,28,71,780,28,2014-10-01T23:20:00,1,28185306,193430
OK,28,71,780,28,2014-10-01T23:25:00,0,28185737,193430
OK,28,71,780,28,2014-10-01T23:30:00,0,28186129,193430
OK,28,71,780,28,2014-10-01T23:35:00,0,28186578,193430
OK,28,71,780,28,2014-10-01T23:40:00,0,28186976,193430
OK,28,71,780,28,2014-10-01T23:45:00,0,28187418,193430
OK,28,71,780,28,2014-10-01T23:50:00,0,28187867,193430
OK,28,71,780,28,2014-10-01T23:55:00,0,28188308,193430
OK,28,71,780,28,2014-10-02T00:00:00,0,28188744,193430
OK,28,71,780,28,2014-10-02T00:10:00,0,28189193,193430
OK,28,71,780,28,2014-10-02T00:20:00,0,28190064,193430
OK,28,71,780,28,2014-10-02T00:25:00,0,28190866,193430
OK,28,71,780,28,2014-10-02T00:35:00,0,28191315,193430
OK,30,66,780,30,2014-10-02T00:45:00,1,28192070,193430
OK,30,66,780,30,2014-10-02T00:50:00,0,28192948,193430
OK,30,66,780,30,2014-10-02T00:55:00,0,28193315,193430
OK,30,66,780,30,2014-10-02T01:00:00,0,28193763,193430
OK,30,66,780,30,2014-10-02T01:10:00,0,28194212,193430
OK,30,66,780,30,2014-10-02T01:15:00,0,28194661,193430
OK,41,48,780,41,2014-10-02T01:20:00,1,28195346,193430
OK,41,48,780,41,2014-10-02T01:30:00,0,28195795,193430
OK,41,48,780,41,2014-10-02T01:35:00,0,28196528,193430
OK,41,48,780,41,2014-10-02T01:40:00,0,28196959,193430
OK,29,69,780,29,2014-10-02T01:45:00,0,28197400,193430
OK,29,69,780,29,2014-10-02T01:50:00,0,28197849,193430
OK,42,47,780,42,2014-10-02T02:00:00,0,28198296,193430
OK,29,69,780,29,2014-10-02T02:05:00,0,28198745,193430
OK,29,69,780,29,2014-10-02T02:10:00,0,28199561,193430
OK,29,69,780,29,2014-10-02T02:15:00,0,28200001,193430
OK,29,69,780,29,2014-10-02T02:20:00,0,28200444,193430
OK,29,69,780,29,2014-10-02T02:25:00,0,28200893,193430
OK,29,69,780,29,2014-10-02T02:30:00,0,28201324,193430
OK,29,69,780,29,2014-10-02T02:45:00,0,28202222,193430
OK,22,91,780,22,2014-10-02T02:50:00,1,28202664,193430
OK,22,91,780,22,2014-10-02T02:55:00,0,28203112,193430
OK,24,83,780,24,2014-10-02T03:00:00,1,28203549,193430
OK,24,83,780,24,2014-10-02T03:10:00,0,28203996,193430
OK,29,69,780,29,2014-10-02T03:25:00,4,28204445,193430
OK,30,66,780,30,2014-10-02T03:35:00,6,28204894,193430
OK,48,41,780,48,2014-10-02T03:40:00,2,28205770,193430
OK,27,74,780,27,2014-10-02T03:45:00,5,28206154,193430
OK,46,43,780,46,2014-10-02T04:00:00,1,28207050,193430
OK,40,50,780,40,2014-10-02T04:10:00,5,28207918,193430
OK,30,66,780,30,2014-10-02T04:20:00,9,28208794,193430
OK,28,71,780,28,2014-10-02T04:30:00,11,28209681,193430
OK,32,62,780,32,2014-10-02T04:40:00,10,28210553,193430
OK,26,77,780,26,2014-10-02T04:45:00,2,28211424,193430
OK,25,80,780,25,2014-10-02T04:50:00,0,28211801,193430
OK,46,43,780,46,2014-10-02T05:00:00,3,28212249,193430
OK,53,37,780,53,2014-10-02T05:05:00,12,28212698,193430
OK,54,37,780,54,2014-10-02T05:10:00,1,28213127,193430
OK,39,51,780,39,2014-10-02T05:15:00,18,28213576,193430
OK,51,39,780,51,2014-10-02T05:20:00,9,28214014,193430
OK,47,42,780,47,2014-10-02T05:30:00,4,28214876,193430
OK,71,28,780,71,2014-10-02T05:40:00,23,28215741,193430
OK,71,28,780,71,2014-10-02T05:45:00,12,28216190,193430
OK,70,28,780,70,2014-10-02T05:50:00,0,28216969,193430
OK,76,26,780,76,2014-10-02T06:00:00,25,28217416,193430
OK,55,36,780,55,2014-10-02T06:10:00,4,28218304,193430
OK,74,27,780,74,2014-10-02T06:15:00,37,28219173,193430
OK,78,25,780,78,2014-10-02T06:20:00,32,28219551,193430
OK,87,23,780,87,2014-10-02T06:25:00,28,28219995,193430
OK,81,24,780,81,2014-10-02T06:30:00,32,28220434,193430
OK,40,50,780,40,2014-10-02T06:40:00,19,28220878,193430
OK,51,39,780,51,2014-10-02T06:45:00,21,28221546,193430
OK,40,50,780,40,2014-10-02T07:00:00,21,28222139,193430
OK,49,40,780,49,2014-10-02T07:05:00,18,28222588,193430
OK,48,41,780,48,2014-10-02T07:10:00,17,28223029,193430
OK,49,40,780,49,2014-10-02T07:15:00,4,28223456,193430
OK,58,34,780,58,2014-10-02T07:20:00,0,28223902,193430
OK,38,52,780,38,2014-10-02T07:25:00,14,28224258,193430
OK,47,42,780,47,2014-10-02T07:30:00,8,28224706,193430
OK,46,43,780,46,2014-10-02T07:40:00,10,28225155,193430
OK,39,51,780,39,2014-10-02T07:50:00,23,28226374,193430
OK,38,52,780,38,2014-10-02T08:00:00,5,28226816,193430
OK,32,62,780,32,2014-10-02T08:05:00,16,28227680,193430
OK,32,62,780,32,2014-10-02T08:10:00,2,28228058,193430
OK,45,44,780,45,2014-10-02T08:20:00,4,28228488,193430
OK,30,66,780,30,2014-10-02T08:30:00,1,28229347,193430
OK,44,45,780,44,2014-10-02T08:40:00,5,28230146,193430
OK,35,57,780,35,2014-10-02T08:50:00,11,28230961,193430
OK,31,64,780,31,2014-10-02T08:55:00,2,28231833,193430
OK,35,57,780,35,2014-10-02T09:00:00,14,28232187,193430
OK,36,55,780,36,2014-10-02T09:10:00,0,28232624,193430
OK,32,62,780,32,2014-10-02T09:20:00,4,28233073,193430
OK,43,46,780,43,2014-10-02T09:25:00,0,28233946,193430
OK,43,46,780,43,2014-10-02T09:30:00,0,28234289,193430
OK,42,47,780,42,2014-10-02T09:35:00,6,28234728,193430
OK,42,47,780,42,2014-10-02T09:40:00,4,28235160,193430
OK,49,40,780,49,2014-10-02T09:45:00,12,28235604,193430
OK,45,44,780,45,2014-10-02T09:50:00,3,28236050,193430
OK,66,30,780,66,2014-10-02T10:00:00,1,28236494,193430
OK,66,30,780,66,2014-10-02T10:05:00,0,28237345,193430
OK,35,57,780,35,2014-10-02T10:10:00,17,28237793,193430
OK,42,47,780,42,2014-10-02T10:15:00,14,28238241,193430
OK,44,45,780,44,2014-10-02T10:20:00,14,28238686,193430
OK,48,41,780,48,2014-10-02T10:25:00,8,28239130,193430
OK,50,40,780,50,2014-10-02T10:30:00,1,28239565,193430
OK,39,51,780,39,2014-10-02T10:35:00,12,28240009,193430
OK,31,64,780,31,2014-10-02T10:40:00,15,28240455,193430
OK,41,48,780,41,2014-10-02T10:50:00,7,28240902,193430
OK,41,48,780,41,2014-10-02T10:55:00,6,28241782,193430
OK,50,40,780,50,2014-10-02T11:00:00,2,28242194,193430
OK,48,41,780,48,2014-10-02T11:05:00,0,28242627,193430
OK,33,60,780,33,2014-10-02T11:15:00,7,28243076,193430
OK,42,47,780,42,2014-10-02T11:20:00,8,28243525,193430
OK,23,87,780,23,2014-10-02T11:25:00,1,28244272,193430
OK,23,87,780,23,2014-10-02T11:30:00,0,28244717,193430
OK,31,64,780,31,2014-10-02T11:40:00,5,28245166,193430
OK,31,64,780,31,2014-10-02T11:45:00,0,28246021,193430
OK,48,41,780,48,2014-10-02T11:50:00,12,28246459,193430
OK,45,44,780,45,2014-10-02T11:55:00,19,28246907,193430
OK,38,52,780,38,2014-10-02T12:00:00,19,28247354,193430
OK,32,62,780,32,2014-10-02T12:05:00,6,28247787,193430
OK,32,62,780,32,2014-10-02T12:10:00,0,28248232,193430
OK,42,47,780,42,2014-10-02T12:15:00,14,28248680,193430
OK,36,55,780,36,2014-10-02T12:20:00,8,28249116,193430
OK,31,64,780,31,2014-10-02T12:30:00,5,28249551,193430
OK,39,51,780,39,2014-10-02T12:35:00,16,28250368,193430
OK,39,51,780,39,2014-10-02T12:45:00,18,28251148,193430
OK,33,60,780,33,2014-10-02T13:20:00,7,28251693,193430
OK,65,30,780,65,2014-10-02T13:30:00,11,28252277,193430
OK,50,40,780,50,2014-10-02T13:35:00,3,28252719,193430
OK,50,40,780,50,2014-10-02T13:40:00,0,28253136,193430
OK,58,34,780,58,2014-10-02T13:45:00,13,28253585,193430
OK,34,59,780,34,2014-10-02T13:50:00,5,28253994,193430
OK,35,57,780,35,2014-10-02T13:55:00,15,28254311,193430
OK,36,55,780,36,2014-10-02T14:10:00,11,28254888,193430
OK,53,37,780,53,2014-10-02T14:15:00,16,28255337,193430
OK,53,37,780,53,2014-10-02T14:20:00,15,28255766,193430
OK,40,50,780,40,2014-10-02T14:25:00,6,28256214,193430
OK,57,35,780,57,2014-10-02T14:30:00,21,28256642,193430
OK,57,35,780,57,2014-10-02T14:35:00,12,28257091,193430
OK,48,41,780,48,2014-10-02T14:40:00,14,28257532,193430
OK,41,48,780,41,2014-10-02T14:45:00,16,28257980,193430
OK,47,42,780,47,2014-10-02T14:50:00,16,28258413,193430
OK,57,35,780,57,2014-10-02T14:55:00,18,28258859,193430
OK,33,60,780,33,2014-10-02T15:00:00,14,28259308,193430
OK,34,59,780,34,2014-10-02T15:05:00,15,28259755,193430
OK,33,60,780,33,2014-10-02T15:10:00,21,28260188,193430
OK,35,57,780,35,2014-10-02T15:15:00,19,28260637,193430
OK,34,59,780,34,2014-10-02T15:20:00,8,28261077,193430
OK,41,48,780,41,2014-10-02T15:25:00,16,28261459,193430
OK,62,32,780,62,2014-10-02T15:30:00,6,28261889,193430
OK,51,39,780,51,2014-10-02T15:35:00,9,28262336,193430
OK,53,37,780,53,2014-10-02T15:40:00,4,28262782,193430
OK,36,55,780,36,2014-10-02T15:45:00,15,28263220,193430
OK,36,55,780,36,2014-10-02T15:50:00,8,28263661,193430
OK,47,42,780,47,2014-10-02T15:55:00,0,28264063,193430
OK,47,42,780,47,2014-10-02T16:00:00,0,28264512,193430
OK,32,62,780,32,2014-10-02T16:05:00,16,28264950,193430
OK,44,45,780,44,2014-10-02T16:10:00,10,28265390,193430
OK,30,66,780,30,2014-10-02T16:15:00,2,28265786,193430
OK,32,62,780,32,2014-10-02T16:20:00,6,28266235,193430
OK,38,52,780,38,2014-10-02T16:25:00,11,28266684,193430
OK,47,42,780,47,2014-10-02T16:30:00,11,28267008,193430
OK,59,34,780,59,2014-10-02T16:35:00,4,28267456,193430
OK,56,35,780,56,2014-10-02T16:40:00,0,28267905,193430
OK,35,57,780,35,2014-10-02T16:45:00,11,28268347,193430
OK,48,41,780,48,2014-10-02T16:50:00,0,28268796,193430
OK,31,64,780,31,2014-10-02T16:55:00,12,28269245,193430
OK,38,52,780,38,2014-10-02T17:00:00,8,28269680,193430
OK,39,51,780,39,2014-10-02T17:05:00,6,28270129,193430
OK,32,62,780,32,2014-10-02T17:10:00,1,28270563,193430
OK,32,62,780,32,2014-10-02T17:15:00,0,28271012,193430
OK,32,62,780,32,2014-10-02T17:20:00,12,28271442,193430
OK,52,38,780,52,2014-10-02T17:25:00,2,28271890,193430
OK,44,45,780,44,2014-10-02T17:30:00,5,28272326,193430
OK,37,54,780,37,2014-10-02T17:35:00,3,28272767,193430
OK,37,54,780,37,2014-10-02T17:40:00,0,28273215,193430
OK,38,52,780,38,2014-10-02T17:45:00,3,28273661,193430
OK,29,69,780,29,2014-10-02T17:55:00,3,28274110,193430
OK,33,60,780,33,2014-10-02T18:00:00,5,28274884,193430
OK,31,64,780,31,2014-10-02T18:05:00,5,28275323,193430
OK,35,57,780,35,2014-10-02T18:10:00,0,28275768,193430
OK,35,57,780,35,2014-10-02T18:15:00,0,28276214,193430
OK,33,60,780,33,2014-10-02T18:20:00,3,28276610,193430
OK,33,60,780,33,2014-10-02T18:30:00,0,28277059,193430
OK,22,91,780,22,2014-10-02T18:40:00,0,28277508,193430
OK,29,69,780,29,2014-10-02T18:45:00,2,28278305,193430
OK,30,66,780,30,2014-10-02T19:00:00,0,28278754,193430
OK,29,69,780,29,2014-10-02T19:05:00,2,28279203,193430
OK,31,64,780,31,2014-10-02T19:10:00,0,28279648,193430
OK,32,62,780,32,2014-10-02T19:15:00,4,28280089,193430
OK,34,59,780,34,2014-10-02T19:20:00,3,28280536,193430
OK,34,59,780,34,2014-10-02T19:25:00,0,28280940,193430
OK,34,59,780,34,2014-10-02T19:35:00,0,28281838,193430
OK,33,60,780,33,2014-10-02T19:40:00,4,28282269,193430
OK,32,62,780,32,2014-10-02T19:45:00,0,28282718,193430
OK,32,62,780,32,2014-10-02T19:50:00,0,28283165,193430
OK,44,45,780,44,2014-10-02T19:55:00,5,28283595,193430
OK,52,38,780,52,2014-10-02T20:00:00,1,28283965,193430
OK,32,62,780,32,2014-10-02T20:10:00,0,28284414,193430
OK,27,74,780,27,2014-10-02T20:15:00,1,28285197,193430
OK,27,74,780,27,2014-10-02T20:20:00,0,28285633,193430
OK,27,74,780,27,2014-10-02T20:25:00,0,28286048,193430
OK,32,62,780,32,2014-10-02T20:35:00,0,28286900,193430
OK,31,64,780,31,2014-10-02T20:40:00,1,28287331,193430
OK,31,64,780,31,2014-10-02T20:45:00,1,28287660,193430
OK,25,80,780,25,2014-10-03T22:35:00,1,28291611,193430
OK,25,80,780,25,2014-10-03T22:40:00,0,28292060,193430
OK,33,60,780,33,2014-10-03T22:45:00,1,28292509,193430
OK,31,64,780,31,2014-10-03T22:50:00,3,28292955,193430
OK,32,62,780,32,2014-10-03T22:55:00,4,28293404,193430
OK,33,60,780,33,2014-10-03T23:00:00,1,28293853,193430
OK,24,83,780,24,2014-10-03T23:05:00,1,28294282,193430
OK,20,100,780,20,2014-10-03T23:10:00,3,28294718,193430
OK,30,66,780,30,2014-10-03T23:15:00,3,28295158,193430
OK,28,71,780,28,2014-10-03T23:25:00,2,28295607,193430
OK,27,74,780,27,2014-10-03T23:30:00,1,28296050,193430
OK,27,74,780,27,2014-10-03T23:35:00,0,28296499,193430
OK,28,71,780,28,2014-10-03T23:40:00,3,28296902,193430
OK,26,77,780,26,2014-10-03T23:45:00,4,28297329,193430
OK,25,80,780,25,2014-10-03T23:50:00,1,28297778,193430
OK,25,80,780,25,2014-10-03T23:55:00,0,28298227,193430
OK,35,57,780,35,2014-10-04T00:00:00,1,28298604,193430
OK,27,74,780,27,2014-10-04T00:15:00,1,28299208,193430
OK,27,74,780,27,2014-10-04T00:20:00,2,28299657,193430
OK,27,74,780,27,2014-10-04T00:25:00,0,28300095,193430
OK,27,74,780,27,2014-10-04T00:30:00,0,28300537,193430
OK,27,74,780,27,2014-10-04T00:40:00,0,28300985,193430
OK,27,74,780,27,2014-10-04T00:45:00,1,28301809,193430
OK,27,74,780,27,2014-10-04T00:50:00,1,28302258,193430
OK,27,74,780,27,2014-10-04T01:00:00,0,28302706,193430
OK,21,95,780,21,2014-10-04T01:10:00,0,28303567,193430